FW1394 Weather Reports


time (UTC)temp
F
wind
direction
speed
knots
gust
knots
rain 1hr
in
rain 24hr
in
rain mn
in
humidity
%
barometer
mb
20260503212042 88 0 0.0 0.0 0.00 0.00 0.00 29 1012.3
20260503211550 88 0 0.0 0.0 0.00 0.00 0.00 29 1012.4
20260503211040 88 0 0.0 0.0 0.00 0.00 0.00 29 1012.5
20260503210540 88 0 0.0 0.0 0.00 0.00 0.00 29 1012.5
20260503210057 87 0 0.0 0.0 0.00 0.00 0.00 30 1012.7
20260503205541 87 0 0.0 0.0 0.00 0.00 0.00 29 1012.7
20260503205043 87 0 0.0 0.0 0.00 0.00 0.00 30 1012.8
20260503204606 87 0 0.0 0.0 0.00 0.00 0.00 31 1012.9
20260503204040 88 0 0.0 0.0 0.00 0.00 0.00 29 1013.0
20260503203541 88 0 0.0 0.0 0.00 0.00 0.00 29 1013.1
20260503203105 88 0 0.0 0.0 0.00 0.00 0.00 30 1013.1
20260503202541 88 0 0.0 0.0 0.00 0.00 0.00 31 1013.2
20260503202041 88 0 0.0 0.0 0.00 0.00 0.00 31 1013.2
20260503201549 87 0 0.0 0.0 0.00 0.00 0.00 32 1013.2
20260503201042 88 0 0.0 0.0 0.00 0.00 0.00 29 1013.3
20260503200540 88 0 0.0 0.0 0.00 0.00 0.00 30 1013.3
20260503200055 88 0 0.0 0.0 0.00 0.00 0.00 30 1013.4
20260503195540 89 0 0.0 0.0 0.00 0.00 0.00 31 1013.4
20260503195042 89 0 0.0 0.0 0.00 0.00 0.00 30 1013.4
20260503194607 88 0 0.0 0.0 0.00 0.00 0.00 31 1013.4
20260503194041 88 0 0.0 0.0 0.00 0.00 0.00 31 1013.3
20260503193542 88 0 0.0 0.0 0.00 0.00 0.00 31 1013.4
20260503193050 88 0 0.0 0.0 0.00 0.00 0.00 32 1013.5
20260503192541 88 0 0.0 0.0 0.00 0.00 0.00 33 1013.4
20260503192041 87 0 0.0 0.0 0.00 0.00 0.00 32 1013.5
20260503191600 87 0 0.0 0.0 0.00 0.00 0.00 33 1013.5
20260503191042 86 0 0.0 0.0 0.00 0.00 0.00 34 1013.5
20260503190541 86 0 0.0 0.0 0.00 0.00 0.00 34 1013.6
20260503190057 85 0 0.0 0.0 0.00 0.00 0.00 35 1013.6
20260503185541 85 0 0.0 0.0 0.00 0.00 0.00 35 1013.7
20260503185041 84 0 0.0 0.0 0.00 0.00 0.00 35 1013.8
20260503184555 83 0 0.0 0.0 0.00 0.00 0.00 36 1013.8
20260503184041 83 0 0.0 0.0 0.00 0.00 0.00 35 1013.9
20260503183542 83 0 0.0 0.0 0.00 0.00 0.00 36 1014.0
20260503183105 82 0 0.0 0.0 0.00 0.00 0.00 38 1014.1
20260503182540 81 0 0.0 0.0 0.00 0.00 0.00 36 1014.1
20260503182040 81 0 0.0 0.0 0.00 0.00 0.00 37 1014.2
20260503181554 81 0 0.0 0.0 0.00 0.00 0.00 37 1014.2
20260503181040 81 0 0.0 0.0 0.00 0.00 0.00 37 1014.2
20260503180540 81 0 0.0 0.0 0.00 0.00 0.00 38 1014.1
20260503180105 80 0 0.0 0.0 0.00 0.00 0.00 38 1014.2
20260503175540 79 0 0.0 0.0 0.00 0.00 0.00 39 1014.2
20260503175040 79 0 0.0 0.0 0.00 0.00 0.00 39 1014.3
20260503174549 78 0 0.0 0.0 0.00 0.00 0.00 41 1014.3
20260503174041 77 0 0.0 0.0 0.00 0.00 0.00 42 1014.3
20260503173538 76 0 0.0 0.0 0.00 0.00 0.00 43 1014.3
20260503173134 75 0 0.0 0.0 0.00 0.00 0.00 44 1014.3
20260503172539 74 0 0.0 0.0 0.00 0.00 0.00 46 1014.3
20260503172039 73 0 0.0 0.0 0.00 0.00 0.00 48 1014.4
20260503171554 72 0 0.0 0.0 0.00 0.00 0.00 49 1014.4
20260503171045 71 0 0.0 0.0 0.00 0.00 0.00 52 1014.4
20260503170541 69 0 0.0 0.0 0.00 0.00 0.00 54 1014.5
20260503150541 64 0 0.0 0.0 0.00 0.00 0.00 65 1014.7
20260503131042 51 0 0.0 0.0 0.00 0.00 0.00 83 1014.2
20260503130542 51 0 0.0 0.0 0.00 0.00 0.00 83 1014.2
20260503130104 51 0 0.0 0.0 0.00 0.00 0.00 83 1014.3
20260503110540 54 0 0.0 0.0 0.00 0.00 0.00 79 1014.5
20260503081600 54 0 0.0 0.0 0.00 0.00 0.00 74 1014.4
20260503081040 54 0 0.0 0.0 0.00 0.00 0.00 74 1014.5
20260503080541 54 0 0.0 0.0 0.00 0.00 0.00 73 1014.4
20260503072541 54 0 0.0 0.0 0.00 0.00 0.00 72 1014.2
20260503072041 54 0 0.0 0.0 0.00 0.00 0.00 71 1014.3
20260503071554 55 0 0.0 0.0 0.00 0.00 0.00 71 1014.3
20260503071040 55 0 0.0 0.0 0.00 0.00 0.00 71 1014.2
20260503070541 55 0 0.0 0.0 0.00 0.00 0.00 71 1014.1
20260503055042 57 0 0.0 0.0 0.00 0.00 0.00 67 1014.1
20260503054555 57 0 0.0 0.0 0.00 0.00 0.00 67 1014.0
20260503054041 57 0 0.0 0.0 0.00 0.00 0.00 66 1014.0
20260503053540 57 0 0.0 0.0 0.00 0.00 0.00 65 1014.0
20260503053048 57 0 0.0 0.0 0.00 0.00 0.00 65 1014.0
20260503052543 58 0 0.0 0.0 0.00 0.00 0.00 66 1014.1
20260503052042 58 0 0.0 0.0 0.00 0.00 0.00 66 1014.1
20260503051551 58 0 0.0 0.0 0.00 0.00 0.00 66 1014.1
20260503051042 59 0 0.0 0.0 0.00 0.00 0.00 66 1014.1
20260503050543 59 0 0.0 0.0 0.00 0.00 0.00 65 1014.1
20260503050052 59 0 0.0 0.0 0.00 0.00 0.00 65 1014.1
20260503045543 60 0 0.0 0.0 0.00 0.00 0.00 63 1014.0
20260503045042 60 0 0.0 0.0 0.00 0.00 0.00 62 1014.0
20260503044555 60 0 0.0 0.0 0.00 0.00 0.00 62 1014.1
20260503044042 60 0 0.0 0.0 0.00 0.00 0.00 61 1014.1
20260503043542 61 0 0.0 0.0 0.00 0.00 0.00 60 1014.1
20260503043054 61 0 0.0 0.0 0.00 0.00 0.00 57 1014.0
20260503042542 61 0 0.0 0.0 0.00 0.00 0.00 55 1014.0
20260503042042 61 0 0.0 0.0 0.00 0.00 0.00 55 1014.0
20260503041552 61 0 0.0 0.0 0.00 0.00 0.00 56 1013.9
20260503041047 61 0 0.0 0.0 0.00 0.00 0.00 55 1013.8
20260503040543 62 0 0.0 0.0 0.00 0.00 0.00 54 1013.7
20260503040050 62 0 0.0 0.0 0.00 0.00 0.00 54 1013.7
20260503035541 62 0 0.0 0.0 0.00 0.00 0.00 54 1013.6
20260503035045 62 0 0.0 0.0 0.00 0.00 0.00 54 1013.6
20260503034552 62 0 0.0 0.0 0.00 0.00 0.00 55 1013.6
20260503034043 62 0 0.0 0.0 0.00 0.00 0.00 54 1013.5
20260503033542 62 0 0.0 0.0 0.00 0.00 0.00 53 1013.5
20260503033048 63 0 0.0 0.0 0.00 0.00 0.00 53 1013.6
20260503032543 63 0 0.0 0.0 0.00 0.00 0.00 53 1013.5
20260503032043 63 0 0.0 0.0 0.00 0.00 0.00 53 1013.4
20260503031606 63 0 0.0 0.0 0.00 0.00 0.00 52 1013.4
20260503031042 63 0 0.0 0.0 0.00 0.00 0.00 53 1013.4
20260503030543 63 0 0.0 0.0 0.00 0.00 0.00 52 1013.4
20260503030050 64 0 0.0 0.0 0.00 0.00 0.00 52 1013.4
20260503025541 64 0 0.0 0.0 0.00 0.00 0.00 52 1013.3
20260503025043 64 0 0.0 0.0 0.00 0.00 0.00 52 1013.4
20260503024550 64 0 0.0 0.0 0.00 0.00 0.00 52 1013.3
20260503024041 64 0 0.0 0.0 0.00 0.00 0.00 52 1013.4
20260503023542 64 0 0.0 0.0 0.00 0.00 0.00 52 1013.4
20260503023047 65 0 0.0 0.0 0.00 0.00 0.00 53 1013.4
20260503022541 65 0 0.0 0.0 0.00 0.00 0.00 53 1013.4
20260503022043 65 0 0.0 0.0 0.00 0.00 0.00 52 1013.5
20260503021550 65 0 0.0 0.0 0.00 0.00 0.00 52 1013.4
20260503021044 65 0 0.0 0.0 0.00 0.00 0.00 51 1013.4
20260503020541 65 0 0.0 0.0 0.00 0.00 0.00 51 1013.4
20260503020059 66 0 0.0 0.0 0.00 0.00 0.00 50 1013.5
20260503015543 66 0 0.0 0.0 0.00 0.00 0.00 50 1013.5
20260503015042 66 0 0.0 0.0 0.00 0.00 0.00 49 1013.5
20260503014554 66 0 0.0 0.0 0.00 0.00 0.00 49 1013.6
20260503014042 66 0 0.0 0.0 0.00 0.00 0.00 49 1013.6
20260503013542 66 0 0.0 0.0 0.00 0.00 0.00 49 1013.6
20260503013049 67 0 0.0 0.0 0.00 0.00 0.00 49 1013.7
20260503012541 67 0 0.0 0.0 0.00 0.00 0.00 49 1013.7
20260503012042 67 0 0.0 0.0 0.00 0.00 0.00 49 1013.9
20260503011604 67 0 0.0 0.0 0.00 0.00 0.00 48 1013.9
20260503011042 67 0 0.0 0.0 0.00 0.00 0.00 48 1013.9
20260503010544 67 0 0.0 0.0 0.00 0.00 0.00 48 1014.0
20260503010053 68 0 0.0 0.0 0.00 0.00 0.00 48 1014.0
20260503005541 68 0 0.0 0.0 0.00 0.00 0.00 48 1013.9
20260503005043 68 0 0.0 0.0 0.00 0.00 0.00 47 1014.0
20260503004547 69 0 0.0 0.0 0.00 0.00 0.00 46 1014.0
20260503004042 69 0 0.0 0.0 0.00 0.00 0.00 47 1014.0
20260503003543 69 0 0.0 0.0 0.00 0.00 0.00 47 1014.1
20260503003050 70 0 0.0 0.0 0.00 0.00 0.00 47 1014.1
20260503002541 70 0 0.0 0.0 0.00 0.00 0.00 46 1014.1
20260503002041 70 0 0.0 0.0 0.00 0.00 0.00 47 1014.1
20260503001553 71 0 0.0 0.0 0.00 0.00 0.00 46 1014.1
20260503001042 71 0 0.0 0.0 0.00 0.00 0.00 45 1014.1
20260503000541 72 0 0.0 0.0 0.00 0.00 0.00 45 1014.1
20260502235542 73 0 0.0 0.0 0.00 0.00 0.00 43 1014.2
20260502235042 73 0 0.0 0.0 0.00 0.00 0.00 41 1014.3
20260502234550 74 0 0.0 0.0 0.00 0.00 0.00 40 1014.3
20260502234042 75 0 0.0 0.0 0.00 0.00 0.00 39 1014.3
20260502233541 76 0 0.0 0.0 0.00 0.00 0.00 38 1014.3
20260502233046 76 0 0.0 0.0 0.00 0.00 0.00 38 1014.4
20260502232540 77 0 0.0 0.0 0.00 0.00 0.00 37 1014.4
20260502232041 78 0 0.0 0.0 0.00 0.00 0.00 37 1014.4
20260502231615 79 0 0.0 0.0 0.00 0.00 0.00 38 1014.4
20260502231042 80 0 0.0 0.0 0.00 0.00 0.00 36 1014.5
20260502230541 80 0 0.0 0.0 0.00 0.00 0.00 34 1014.5
20260502230052 81 0 0.0 0.0 0.00 0.00 0.00 34 1014.6
20260502225541 82 0 0.0 0.0 0.00 0.00 0.00 33 1014.6
20260502225041 83 0 0.0 0.0 0.00 0.00 0.00 33 1014.7
20260502224559 83 0 0.0 0.0 0.00 0.00 0.00 34 1014.7
20260502224042 83 0 0.0 0.0 0.00 0.00 0.00 34 1014.8
20260502223542 83 0 0.0 0.0 0.00 0.00 0.00 34 1014.8
20260502223051 83 0 0.0 0.0 0.00 0.00 0.00 35 1015.0
20260502222541 83 0 0.0 0.0 0.00 0.00 0.00 34 1015.1
20260502222041 83 0 0.0 0.0 0.00 0.00 0.00 35 1015.2
20260502221554 83 0 0.0 0.0 0.00 0.00 0.00 35 1015.2
20260502221041 83 0 0.0 0.0 0.00 0.00 0.00 35 1015.3
20260502220541 83 0 0.0 0.0 0.00 0.00 0.00 35 1015.3
20260502220050 84 0 0.0 0.0 0.00 0.00 0.00 34 1015.5
20260502215541 85 0 0.0 0.0 0.00 0.00 0.00 33 1015.5
20260502215042 85 0 0.0 0.0 0.00 0.00 0.00 34 1015.6
20260502214550 85 0 0.0 0.0 0.00 0.00 0.00 34 1015.5
20260502214040 85 0 0.0 0.0 0.00 0.00 0.00 35 1015.7
20260502213540 84 0 0.0 0.0 0.00 0.00 0.00 34 1015.8
20260502213054 84 0 0.0 0.0 0.00 0.00 0.00 35 1015.9
20260502212541 84 0 0.0 0.0 0.00 0.00 0.00 35 1015.8